Tracking 29892 objects as of 21-Nov-2024
HD Live streaming from Space Station
objects crossing your sky now

STARLINK-31368

Track STARLINK-31368 now!
10-day predictions
STARLINK-31368 is classified as:


NORAD ID: 58970
Int'l Code: 2024-031F
Perigee: 481.1 km
Apogee: 483.6 km
Inclination: 53.2 °
Period: 94.1 minutes
Semi major axis: 6853 km
RCS: Unknown
Launch date: February 15, 2023
Source: United States (US)
Launch site: AIR FORCE WESTERN TEST RANGE (AFWTR)
Your satellite tracking list
Your tracking list is empty




NASA's NSSDC Master Catalog

Two Line Element Set (TLE):
1 58970U 24031F   24325.42816248  .00007504  00000-0  26520-3 0  9994
2 58970  53.1590 339.4478 0001838  96.1752 263.9458 15.30202388 43929
Source of the keplerian elements: AFSPC